When you browse on this site, cookies collect data to enhance your experience and personalize the content and advertising you see.
Visit our Privacy Policy to learn more. By continuing to use the site, you agree to this use of cookies and data.
  • In Hungary
  • List of Countries
  • For 7 days
  • Water Temperature
  • Satellite Maps
  • Weather Map
  • News
  • Weather Widgets
  • user-avatar
    Login

    Hourly Weather Ashkelon

    Today, 18 July, Thursday

    Time Temperature Precipitation Wind Pressure Humidity
    00:00 +26°C° 0 mm 1 mps 752 mmHg 89%
    01:00 +26°C° 0 mm 2 mps 751 mmHg 89%
    02:00 +26°C° 0 mm 1 mps 751 mmHg 90%
    03:00 +26°C° 0 mm 2 mps 752 mmHg 90%
    04:00 +26°C° 0 mm 2 mps 752 mmHg 90%
    05:00 +26°C° 0 mm 2 mps 752 mmHg 90%
    06:00 +28°C° 0 mm 3 mps 752 mmHg 79%
    07:00 +29°C° 0 mm 3 mps 752 mmHg 68%
    08:00 +31°C° 0 mm 3 mps 752 mmHg 56%
    09:00 +33°C° 0 mm 4 mps 752 mmHg 52%
    10:00 +34°C° 0 mm 4 mps 753 mmHg 49%
    11:00 +35°C° 0 mm 5 mps 753 mmHg 45%
    12:00 +35°C° 0 mm 6 mps 752 mmHg 47%
    13:00 +35°C° 0 mm 6 mps 752 mmHg 50%
    14:00 +34°C° 0 mm 7 mps 752 mmHg 52%
    15:00 +34°C° 0 mm 7 mps 752 mmHg 54%
    16:00 +33°C° 0 mm 6 mps 752 mmHg 55%
    17:00 +32°C° 0 mm 6 mps 752 mmHg 57%
    18:00 +30°C° 0 mm 5 mps 753 mmHg 65%
    19:00 +28°C° 0 mm 5 mps 753 mmHg 73%
    20:00 +27°C° 0 mm 4 mps 753 mmHg 80%
    21:00 +26°C° 0 mm 3 mps 754 mmHg 82%
    22:00 +26°C° 0 mm 2 mps 754 mmHg 83%
    23:00 +25°C° 0 mm 1 mps 754 mmHg 85%

    Tomorrow, 19 July, Friday

    Time Temperature Precipitation Wind Pressure Humidity
    00:00 +25°C° 0 mm 1 mps 754 mmHg 86%
    01:00 +24°C° 0 mm 1 mps 754 mmHg 87%
    02:00 +22°C° 0 mm 0 mps 754 mmHg 87%
    03:00 +24°C° 0 mm 1 mps 754 mmHg 88%
    04:00 +23°C° 0 mm 1 mps 755 mmHg 88%
    05:00 +23°C° 0 mm 1 mps 755 mmHg 88%
    06:00 +25°C° 0 mm 1 mps 755 mmHg 79%
    07:00 +27°C° 0 mm 1 mps 755 mmHg 69%
    08:00 +29°C° 0 mm 2 mps 755 mmHg 60%
    09:00 +30°C° 0 mm 2 mps 755 mmHg 55%
    10:00 +31°C° 0 mm 3 mps 755 mmHg 50%
    11:00 +34°C° 0 mm 4 mps 755 mmHg 45%
    12:00 +34°C° 0 mm 5 mps 755 mmHg 46%
    13:00 +34°C° 0 mm 5 mps 754 mmHg 46%
    14:00 +34°C° 0 mm 6 mps 754 mmHg 47%
    15:00 +33°C° 0 mm 6 mps 754 mmHg 51%
    16:00 +32°C° 0 mm 5 mps 754 mmHg 55%
    17:00 +30°C° 0 mm 5 mps 754 mmHg 59%
    18:00 +29°C° 0 mm 5 mps 754 mmHg 65%
    19:00 +27°C° 0 mm 4 mps 754 mmHg 72%
    20:00 +26°C° 0 mm 3 mps 755 mmHg 78%
    21:00 +25°C° 0 mm 3 mps 755 mmHg 81%
    22:00 +24°C° 0 mm 2 mps 755 mmHg 83%
    23:00 +24°C° 0 mm 1 mps 755 mmHg 85%

    Day after tomorrow, 20 July, Saturday

    Time Temperature Precipitation Wind Pressure Humidity
    00:00 +23°C° 0 mm 1 mps 755 mmHg 85%
    01:00 +23°C° 0 mm 1 mps 755 mmHg 85%
    02:00 +23°C° 0 mm 1 mps 754 mmHg 85%
    03:00 +23°C° 0 mm 1 mps 754 mmHg 86%
    04:00 +23°C° 0 mm 1 mps 755 mmHg 87%
    05:00 +23°C° 0 mm 1 mps 755 mmHg 88%
    06:00 +25°C° 0 mm 1 mps 755 mmHg 80%
    07:00 +26°C° 0 mm 1 mps 755 mmHg 72%
    08:00 +28°C° 0 mm 2 mps 755 mmHg 64%
    09:00 +30°C° 0 mm 2 mps 755 mmHg 58%
    10:00 +31°C° 0 mm 3 mps 755 mmHg 52%
    11:00 +34°C° 0 mm 4 mps 755 mmHg 46%
    12:00 +34°C° 0 mm 4 mps 755 mmHg 46%
    13:00 +34°C° 0 mm 5 mps 754 mmHg 46%
    14:00 +34°C° 0 mm 5 mps 754 mmHg 45%
    15:00 +33°C° 0 mm 6 mps 754 mmHg 50%
    16:00 +32°C° 0 mm 6 mps 754 mmHg 54%
    17:00 +30°C° 0 mm 6 mps 754 mmHg 58%
    18:00 +29°C° 0 mm 5 mps 754 mmHg 66%
    19:00 +27°C° 0 mm 4 mps 755 mmHg 74%
    20:00 +26°C° 0 mm 3 mps 755 mmHg 82%
    21:00 +25°C° 0 mm 2 mps 755 mmHg 84%
    22:00 +24°C° 0 mm 1 mps 755 mmHg 86%
    23:00 +23°C° 0 mm 1 mps 755 mmHg 88%

    21 July, Sunday

    Time Temperature Precipitation Wind Pressure Humidity
    00:00 +23°C° 0 mm 1 mps 755 mmHg 88%
    01:00 +23°C° 0 mm 1 mps 754 mmHg 88%
    02:00 +22°C° 0 mm 1 mps 754 mmHg 89%
    03:00 +23°C° 0 mm 1 mps 754 mmHg 89%
    04:00 +23°C° 0 mm 1 mps 754 mmHg 89%
    05:00 +23°C° 0 mm 1 mps 754 mmHg 90%
    06:00 +25°C° 0 mm 1 mps 754 mmHg 82%
    07:00 +27°C° 0 mm 1 mps 754 mmHg 73%
    08:00 +29°C° 0 mm 1 mps 754 mmHg 65%
    09:00 +30°C° 0 mm 2 mps 754 mmHg 59%
    10:00 +33°C° 0 mm 3 mps 754 mmHg 53%
    11:00 +34°C° 0 mm 4 mps 754 mmHg 47%
    12:00 +34°C° 0 mm 4 mps 753 mmHg 47%
    13:00 +34°C° 0 mm 5 mps 753 mmHg 48%
    14:00 +34°C° 0 mm 6 mps 753 mmHg 48%
    15:00 +33°C° 0 mm 6 mps 753 mmHg 52%
    16:00 +33°C° 0 mm 6 mps 752 mmHg 56%
    17:00 +32°C° 0 mm 6 mps 752 mmHg 61%
    18:00 +29°C° 0 mm 5 mps 753 mmHg 68%
    19:00 +28°C° 0 mm 5 mps 753 mmHg 76%
    20:00 +26°C° 0 mm 4 mps 754 mmHg 83%
    21:00 +26°C° 0 mm 3 mps 754 mmHg 84%
    22:00 +25°C° 0 mm 2 mps 753 mmHg 86%
    23:00 +25°C° 0 mm 2 mps 753 mmHg 87%

    22 July, Monday

    Time Temperature Precipitation Wind Pressure Humidity
    00:00 +24°C° 0 mm 1 mps 753 mmHg 88%
    01:00 +23°C° 0 mm 1 mps 753 mmHg 89%
    02:00 +21°C° 0 mm 0 mps 752 mmHg 90%
    03:00 +21°C° 0 mm 0 mps 752 mmHg 90%
    04:00 +23°C° 0 mm 1 mps 752 mmHg 90%
    05:00 +23°C° 0 mm 1 mps 752 mmHg 91%
    06:00 +25°C° 0 mm 1 mps 753 mmHg 82%
    07:00 +27°C° 0 mm 1 mps 753 mmHg 73%
    08:00 +29°C° 0 mm 1 mps 753 mmHg 65%
    09:00 +31°C° 0 mm 2 mps 752 mmHg 58%
    10:00 +34°C° 0 mm 3 mps 752 mmHg 52%
    11:00 +35°C° 0 mm 4 mps 752 mmHg 46%
    12:00 +35°C° 0 mm 5 mps 751 mmHg 47%
    13:00 +35°C° 0 mm 6 mps 751 mmHg 48%
    14:00 +35°C° 0 mm 7 mps 751 mmHg 50%
    15:00 +35°C° 0 mm 7 mps 750 mmHg 53%
    16:00 +34°C° 0 mm 7 mps 750 mmHg 56%
    17:00 +33°C° 0 mm 7 mps 750 mmHg 59%
    18:00 +30°C° 0 mm 6 mps 750 mmHg 68%
    19:00 +29°C° 0 mm 5 mps 751 mmHg 76%
    20:00 +27°C° 0 mm 3 mps 751 mmHg 84%
    21:00 +27°C° 0 mm 3 mps 751 mmHg 85%
    22:00 +26°C° 0 mm 2 mps 751 mmHg 87%
    23:00 +26°C° 0 mm 2 mps 751 mmHg 88%

    23 July, Tuesday

    Time Temperature Precipitation Wind Pressure Humidity
    00:00 +25°C° 0 mm 2 mps 751 mmHg 88%
    01:00 +25°C° 0 mm 1 mps 750 mmHg 89%
    02:00 +24°C° 0 mm 1 mps 750 mmHg 89%
    03:00 +24°C° 0 mm 1 mps 750 mmHg 90%
    04:00 +24°C° 0 mm 1 mps 750 mmHg 90%
    05:00 +24°C° 0 mm 1 mps 750 mmHg 91%
    06:00 +26°C° 0 mm 1 mps 750 mmHg 80%
    07:00 +28°C° 0 mm 1 mps 750 mmHg 70%
    08:00 +31°C° 0 mm 1 mps 751 mmHg 60%
    09:00 +32°C° 0 mm 2 mps 750 mmHg 53%
    10:00 +35°C° 0 mm 3 mps 750 mmHg 46%
    11:00 +37°C° 0 mm 4 mps 750 mmHg 39%
    12:00 +36°C° 0 mm 5 mps 750 mmHg 41%
    13:00 +36°C° 0 mm 6 mps 750 mmHg 42%
    14:00 +36°C° 0 mm 6 mps 749 mmHg 43%
    15:00 +35°C° 0 mm 6 mps 749 mmHg 47%
    16:00 +34°C° 0 mm 6 mps 749 mmHg 52%
    17:00 +33°C° 0 mm 6 mps 749 mmHg 56%
    18:00 +30°C° 0 mm 5 mps 750 mmHg 66%
    19:00 +29°C° 0 mm 4 mps 750 mmHg 75%
    20:00 +27°C° 0 mm 3 mps 750 mmHg 85%
    21:00 +26°C° 0 mm 2 mps 751 mmHg 86%
    22:00 +26°C° 0 mm 2 mps 751 mmHg 88%
    23:00 +25°C° 0 mm 1 mps 751 mmHg 89%
    Show more